Simultaneous Nadir Overpasses (SNOs) Predictions

Prediction of SNOs between METOP-A and TERRA Satellite Orbit:

Table of predicted SNOs for the next 14.0 days since TLE Epoch: 10/28/2017
Index Date (METOP-A) Time (METOP-A) Lat,Lon (METOP-A) SZA (METOP-A ) Date (TERRA) Time (TERRA) Lat,Lon (TERRA) SZA (TERRA ) Distance(km) Time Diff (sec)
1 10/30/2017 00:30:00 81.37,-139.00 98.42 10/30/2017 00:30:07 81.37,-139.04 98.41 0.86 7
2 10/30/2017 01:20:40 -81.37, 28.51 81.56 10/30/2017 01:19:34 -81.36, 28.60 81.58 1.54 66
3 11/01/2017 20:04:19 81.37, -72.61 99.32 11/01/2017 20:04:23 81.37, -72.54 99.33 1.18 4
4 11/01/2017 20:54:59 -81.37, 94.93 80.65 11/01/2017 20:53:50 -81.37, 95.11 80.67 3.09 69
5 11/04/2017 15:38:37 81.37, -6.25 100.18 11/04/2017 15:38:39 81.37, -6.17 100.19 1.36 2
6 11/04/2017 16:29:17 -81.37, 161.33 79.79 11/04/2017 16:28:06 -81.37, 161.50 79.80 2.92 71
7 11/07/2017 10:22:35 -81.22,-114.94 79.96 11/07/2017 10:23:49 -80.94,-114.17 80.05 33.78 74
8 11/07/2017 11:12:55 81.37, 60.48 101.05 11/07/2017 11:12:56 81.38, 60.45 101.05 0.70 1
9 11/07/2017 12:03:35 -81.37,-131.90 78.91 11/07/2017 12:02:23 -81.38,-131.86 78.94 0.85 72
10 11/10/2017 05:56:41 -81.33, -43.55 78.55 11/10/2017 05:57:55 -81.23, -43.35 78.56 11.59 74
11 11/10/2017 06:47:14 81.37, 126.80 101.83 11/10/2017 06:47:14 81.38, 126.94 101.85 2.63 0




NCC Satellite Simultaneous Nadir Overpasses (SNOs) Prediction Service
